Skip Page Navigation
NASA JPL Caltech
NASA Logo - Jet Propulsion Laboratory + View the NASA Portal
+ Near-Earth Object (NEO) Program
Search JPL
JPL Home Earth Solar System Stars & Galaxies Technology
JPL Solar System Dynamics
BODIES ORBITS EPHEMERIDES TOOLS PHYSICAL DATA DISCOVERY FAQ SITE MAP
JPL Small-Body Database Browser
Search: [ help ]  
(1999 NW2)
Classification: Apollo [NEO]          SPK-ID: 3021049
Ephemeris | Orbit Diagram | Orbital Elements | Physical Parameters | Close-Approach Data ]

[ hide orbit diagram ]
Orbit Diagram
Note: Make sure you have Java enabled on your browser to see the applet. This applet is provided as a 3D orbit visualization tool. The applet was implemented using 2-body methods, and hence should not be used for determining accurate long-term trajectories (over several years or decades) or planetary encounter circumstances. For accurate long-term ephemerides, please instead use our Horizons system.
Orbit Viewer

Additional Notes: the orbits shown in the applet are color coded. The planets are white lines, and the asteroid/comet is a blue line. The bright white line indicates the portion of the orbit that is above the ecliptic plane, and the darker portion is below the ecliptic plane. Likewise for the asteroid/comet orbit, the light blue indicates the portion above the ecliptic plane, and the dark blue the portion below the ecliptic plane.

Orbit Viewer applet originally written and kindly provided by Osamu Ajiki (AstroArts), and further modified by Ron Baalke (JPL).


Orbital Elements at Epoch 2456400.5 (2013-Apr-18.0) TDB
Reference: JPL 33 (heliocentric ecliptic J2000)
 Element Value Uncertainty (1-sigma)   Units 
e .1086613819714111 1.3569e-07  
a 1.116019238520317 3.5579e-09 AU
q .9947510457560177 1.5447e-07 AU
i 8.68046565830884 1.0068e-05 deg
node 289.5705368593405 7.6605e-06 deg
peri 52.93379481680453 9.9262e-05 deg
M 194.9850267702421 0.00011525 deg
tp 2456597.890751861513
(2013-Nov-01.39075186)
0.00013697 JED
period 430.6316528694861
1.18
2.0593e-06
5.638e-09
d
yr
n .8359812791306986 3.9977e-09 deg/d
Q 1.237287431284617 3.9445e-09 AU
  Orbit Determination Parameters
   # obs. used (total)      174  
   # delay obs. used      0  
   # Doppler obs. used      2  
   data-arc span      4902 days (13.42 yr)  
   first obs. used      1999-07-13  
   last obs. used      2012-12-13  
   planetary ephem.      DE405  
   SB-pert. ephem.      SB405-CPV-2  
   condition code      0  
   fit RMS      .63869  
   data source      ORB  
   producer      Otto Matic  
   solution date      2012-Dec-16 01:11:35  

Additional Information
 Earth MOID = .0166957 AU 
 T_jup = 5.573 
[ show covariance matrix ]

Ephemeris | Orbit Diagram | Orbital Elements | Physical Parameters | Close-Approach Data ]

Physical Parameter Table
Parameter Symbol Value Units Sigma Reference Notes
absolute magnitude H 23.149 mag 1.0547 33 autocmod 2.5b
rotation period rot_per 4.2 h n/a Asteroid Lightcurve DataBase (Rev. 2013-May-01) upper-limit; Result based on less than full coverage, so that the period may be wrong by 30 percent or so.
Published Reference List:
[Benner, L.A.M. (2011) http://echo.jpl.nasa.gov/~lance/radar.nea.per iods.html]

[ show close-approach data ]
Ephemeris | Orbit Diagram | Orbital Elements | Physical Parameters | Close-Approach Data ]
ABOUT SSD CREDITS/AWARDS PRIVACY/COPYRIGHT GLOSSARY LINKS
FirstGov 2013-May-20 06:02 UT
(server date/time)  
NASA Home Page
Site Manager:   Donald K. Yeomans
Webmaster  Alan B. Chamberlin